Location: Ago
(8.4667°N, 4.4167°E)
Time: 23:24:11
(UTC+00:00)

STARLINK-1076 - Pass Details

Date: 06 June 2020
Orbit: 549 x 550 km, 53.0° (Epoch: 07 July)

Event Time Altitude Azimuth Distance (km) Brightness Sun altitude
Rises 18:58:40 0° 342° (NNW) 2,710 7.9 -14.2°
Reaches altitude 10° 19:01:07 10° 353° (N) 1,818 6.7 -14.8°
Maximum altitude 19:04:43 28° 54° (NE) 1,038 4.8 -15.6°
Enters shadow 19:05:54 24° 83° (E) 1,150 4.8 -15.8°
